This is the latest recevied weather packets stored in our database for station/object K0CVS. If no packets are shown the sender has not sent any weather packets the latest 10 day(s).
| Time | Temp. | Humidity | Pressure | Rain* | Wind** | Luminosity | Snow |
|---|---|---|---|---|---|---|---|
| 1777753016 | 18.33° C | 30% | 1020.4 hPa | 0 mm | - | 620 W/m² | - |
| 1777752712 | 18.33° C | 29% | 1020.6 hPa | 0 mm | - | 628 W/m² | - |
| 1777752408 | 17.78° C | 27% | 1020.5 hPa | 0 mm | - | 642 W/m² | - |
| 1777752104 | 17.78° C | 32% | 1020.6 hPa | 0 mm | - | 650 W/m² | - |
| 1777751803 | 18.33° C | 28% | 1020.6 hPa | 0 mm | - | 662 W/m² | - |
| 1777751499 | 18.33° C | 29% | 1020.6 hPa | 0 mm | - | 672 W/m² | - |
| 1777751195 | 18.33° C | 30% | 1020.5 hPa | 0 mm | - | 677 W/m² | - |
| 1777750892 | 17.78° C | 27% | 1020.8 hPa | 0 mm | - | 683 W/m² | - |
| 1777750589 | 17.78° C | 29% | 1020.9 hPa | 0 mm | - | 693 W/m² | - |
| 1777750286 | 17.22° C | 32% | 1021 hPa | 0 mm | - | 702 W/m² | - |
| 1777749981 | 17.22° C | 29% | 1020.9 hPa | 0 mm | - | 711 W/m² | - |
| 1777749679 | 17.22° C | 31% | 1020.9 hPa | 0 mm | - | 717 W/m² | - |
| 1777749376 | 17.78° C | 30% | 1020.9 hPa | 0 mm | - | 722 W/m² | - |
| 1777749073 | 17.78° C | 31% | 1020.9 hPa | 0 mm | - | 724 W/m² | - |
| 1777748771 | 17.78° C | 30% | 1021 hPa | 0 mm | - | 730 W/m² | - |
| 1777748469 | 17.78° C | 33% | 1021 hPa | 0 mm | - | 731 W/m² | - |
| 1777748168 | 18.33° C | 30% | 1021.2 hPa | 0 mm | - | 739 W/m² | - |
| 1777747865 | 17.78° C | 35% | 1021.1 hPa | 0 mm | - | 740 W/m² | - |
| 1777747561 | 17.78° C | 31% | 1021.2 hPa | 0 mm | - | 747 W/m² | - |
| 1777747257 | 17.78° C | 34% | 1021.3 hPa | 0 mm | - | 748 W/m² | - |
| 1777746954 | 17.78° C | 32% | 1021.4 hPa | 0 mm | - | 748 W/m² | - |
| 1777746650 | 17.78° C | 31% | 1021.5 hPa | 0 mm | - | 751 W/m² | - |
| 1777746345 | 17.78° C | 33% | 1021.5 hPa | 0 mm | - | 757 W/m² | - |
| 1777746041 | 16.67° C | 35% | 1021.6 hPa | 0 mm | - | 755 W/m² | - |
| 1777745739 | 16.67° C | 32% | 1021.9 hPa | 0 mm | - | 757 W/m² | - |
* Rain latest hour (hover to see other rain measurements)
** Current wind speed in m/s (hover to see current wind gust speed)